FREGAT DEB, 45640

Orbit data source: Space-Track

FREGAT DEB, 45640 is space debris in LEO originally from a launch on Mon, 18 Jul 2011 UTC launched from the Tyuratam Missile And Space Complex (TTMTR). Debris objects in space refer to the collection of defunct objects orbiting the Earth. Examples of debris include non-operational satellites, rocket bodies, and fragments generated from explosions, collisions, or faulty payload assembly.

Loading next visibility...
FREGAT DEB details
Identifier
45640, 2011-037AG
Orbit
LEO
Last TLE update6 days ago
Origin
Flag of CISVVKO VKS (CIS)
ManufacturerLavochkin
MissionSpacecraft
Bus & MotorUnknown
MassUnknown
Launch date (UTC)
2011-07-18 (13 years ago)
Launch vehicleUnknown
Launch site
Tyuratam Missile And Space Complex (TTMTR)
Object type
Payload
Rocket body
Debris
Shape & HBRUnknown
Radar Cross SectionSmall (<0.1 m²)

Expand to show TLE details & history

TLE from 6 days ago
0 FREGAT DEB
1 45640U 11037AG  24330.85900094 -.00000134  00000-0  00000-0 0  9997
2 45640  50.8815 206.6247 0994687  76.5920 294.3727 12.71158316 58245
Epoch: 2024-11-25T20:36Z
Definitive object data (Epoch: 2024-11-25T20:36:57.681Z)
Latitude0.00006°
Longitude-167.89288°
Altitude1,126.858 km
Speed7.407 km/s
True Right ascension13h 46m 29s
True Declination0° 00' 00"
Sunlit
Object was in daylight at TLE epoch
Visualization TLE readout
Latitude46.32349°
Longitude-66.70773°
Altitude643.746 km
Speed7.892 km/s
Apparent Right ascension19h 04m 04s
Apparent Declination6° 12' 03"
Sunlit
Object is in daylight
Visualization observer readout
Local Sidereal Time05:37:41
Azimuth331.575° NNW
Elevation-39.767°
Doppler factor1
Orbital elements
Apogee altitude2,149.262 km
Perigee altitude606.318 km
Semi-major axis7,755.927 km
Eccentricity0.0994687
Inclination50.8815°
RAAN206.6247°
Arg. of periapsis76.592°
True anomaly283.49609°
Mean anomaly294.3727°
Eccentric anomaly288.98353°
Mean motion3.17755 °/min
BSTARUnknown
Orbital period113.29 mins
Loading maneuver chart data...
Loading historical data...
Loading historical data...
Loading historical data...
Loading historical data...
Loading historical data...
Loading historical data...
Loading historical data...

FREGAT DEB Visibility forecast

Observer location: undefined°, undefined

Span
Click to sort rows by Start time (UTC) header in descending order
Start Az.
Max El. time (UTC)
Max El. Az.
Max El.
End time (UTC)
End Az.
4 mins2024-12-02 15:02:33.601Z148.912° SSE2024-12-02 15:04:33.601Z129.289° SE12.6°2024-12-02 15:06:33.601Z107.887° ESE
9 mins2024-12-02 16:57:33.601Z222.917° SW2024-12-02 17:02:33.601Z134.428° SE43.348°2024-12-02 17:06:33.601Z59.113° ENE
6 mins2024-12-02 18:58:33.601Z294.7° NW2024-12-02 19:00:33.601Z330.554° NNW25.435°2024-12-02 19:04:33.601Z40.145° NE
5 mins2024-12-02 20:58:33.601Z335.193° NNW2024-12-02 21:00:33.601Z12.225° NNE19.26°2024-12-02 21:03:33.601Z56.624° ENE
7 mins2024-12-02 22:56:33.601Z319.865° NNW2024-12-02 22:59:33.601Z49.767° ENE38.986°2024-12-02 23:03:33.601Z108.387° ESE
7 mins2024-12-03 00:54:33.601Z270.043° WNW2024-12-03 00:57:33.601Z219.293° SW23.929°2024-12-03 01:01:33.601Z172.509° S
|